Weather History for KSEG - September, 2012

Change the Weather History Date:

Friday, September 14, 2012

  Actual Average (KIPT) Record (KIPT)
Temperature  
Mean Temperature 66 °F 64 °F  
Max Temperature 80 °F 74 °F 92 °F (1952)
Min Temperature 51 °F 54 °F 35 °F (1975)
Degree Days  
Heating Degree Days 0 3  
Month to date heating degree days 26  
Since 1 July heating degree days 40  
Cooling Degree Days 0 2  
Month to date cooling degree days 44  
Year to date cooling degree days 678  
Growing Degree Days 16 (Base 50)    
Moisture  
Dew Point 59 °F    
Average Humidity 73    
Maximum Humidity 100    
Minimum Humidity 48    
Precipitation  
Precipitation 0.02 in 0.14 in 2.83 in (1973)
Month to date precipitation 1.93  
Year to date precipitation 28.96  
Sea Level Pressure  
Sea Level Pressure 30.21 in    
Wind  
Wind Speed 1 mph (SE)    
Max Wind Speed 8 mph    
Max Gust Speed 20 mph    
Visibility 6 miles    
Events Fog , Rain    
T = Trace of Precipitation, MM = Missing Value Source: NWS Daily Summary

Daily Weather History Graph

Daily Weather History Graph

Search for Another Location

Airport or City:

Trip Planner

Search our weather history database for the weather conditions in past years. The results will help you decide how hot, cold, wet, or windy it might be!

Date:

Astronomy

Sep. 14, 2012 Rise Set
Actual Time 6:47 AM EDT 7:17 PM EDT
Civil Twilight 6:19 AM EDT 7:44 PM EDT
Nautical Twilight 5:47 AM EDT 8:17 PM EDT
Astronomical Twilight 5:14 AM EDT 8:50 PM EDT
Moon 5:09 AM EDT (9/14) 6:12 PM EDT (9/14)
Length of Visible Light 13h 24m
Length of Day
12h 29m
Waning Crescent, 3% of the Moon is Illuminated
Sep 14
Waning Crescent
Sep 15
New
Sep 22
First Quarter
Sep 29
Full
Oct 8
Last Quarter

Hourly Weather History & Observations

Time (EDT) Temp. Heat Index Dew Point Humidity Pressure Visibility Wind Dir Wind Speed Gust Speed Precip Events Conditions
12:53 AM 53.1 °F - - N/A% 30.29 in 5.0 mi Calm Calm - N/A   Haze
1:53 AM 52.0 °F - - N/A% 30.29 in 5.0 mi Calm Calm - N/A   Haze
2:53 AM 51.1 °F - - N/A% 30.27 in 5.0 mi Calm Calm - N/A   Haze
3:30 AM 51.8 °F - - N/A% 30.27 in 2.5 mi Calm Calm - N/A   Clear
3:40 AM 51.8 °F - - N/A% 30.27 in 4.0 mi Calm Calm - N/A   Haze
3:53 AM 51.1 °F - - N/A% 30.27 in 3.0 mi Calm Calm - N/A   Scattered Clouds
4:48 AM 51.8 °F - - N/A% 30.26 in 2.5 mi Calm Calm - N/A   Scattered Clouds
4:53 AM 51.1 °F - - N/A% 30.26 in 2.5 mi Calm Calm - N/A   Mostly Cloudy
5:00 AM 51.8 °F - - N/A% 30.26 in 4.0 mi Calm Calm - N/A   Haze
5:49 AM 51.8 °F - - N/A% 30.26 in 0.8 mi Calm Calm - N/A   Overcast
5:53 AM 52.0 °F - - N/A% 30.26 in 0.8 mi Calm Calm - N/A   Overcast
5:57 AM 51.8 °F - - N/A% 30.26 in 1.2 mi Calm Calm - N/A   Overcast
6:02 AM 51.8 °F - - N/A% 30.26 in 0.8 mi Calm Calm - N/A   Mist
6:53 AM 54.0 °F - - N/A% 30.26 in 0.2 mi Calm Calm - N/A Fog Fog
8:18 AM 55.4 °F - 55.4 °F 100% 30.25 in 0.2 mi Calm Calm - N/A Fog Fog
8:53 AM 57.9 °F - 57.0 °F 97% 30.25 in 0.2 mi Calm Calm - N/A Fog Fog
9:12 AM 57.2 °F - 57.2 °F 100% 30.25 in 1.2 mi Calm Calm - N/A   Overcast
9:28 AM 59.0 °F - 57.2 °F 94% 30.25 in 2.5 mi Calm Calm - N/A   Mostly Cloudy
9:36 AM 60.8 °F - 57.2 °F 88% 30.24 in 4.0 mi Calm Calm - N/A   Partly Cloudy
9:53 AM 63.0 °F - 59.0 °F 87% 30.25 in 5.0 mi Calm Calm - N/A   Clear
10:53 AM 70.0 °F - 57.9 °F 65% 30.23 in 10.0 mi ESE 3.5 mph - N/A   Clear
11:53 AM 73.0 °F - 57.9 °F 59% 30.21 in 10.0 mi SSE 3.5 mph - N/A   Clear
12:53 PM 75.9 °F - 57.0 °F 52% 30.19 in 10.0 mi Variable 4.6 mph - N/A   Clear
1:53 PM 78.1 °F - 59.0 °F 52% 30.17 in 10.0 mi Calm Calm - N/A   Clear
2:53 PM 79.0 °F - 60.1 °F 52% 30.14 in 10.0 mi SSE 6.9 mph - N/A   Clear
3:53 PM 80.1 °F 80.7 °F 59.0 °F 48% 30.12 in 10.0 mi Variable 6.9 mph - N/A   Clear
4:53 PM 78.1 °F - 59.0 °F 52% 30.11 in 10.0 mi SSE 5.8 mph - N/A   Clear
5:53 PM 78.1 °F - 59.0 °F 52% 30.10 in 10.0 mi SSE 5.8 mph - N/A   Clear
6:53 PM 75.0 °F - 59.0 °F 57% 30.10 in 10.0 mi South 4.6 mph - N/A   Clear
7:53 PM 69.1 °F - 60.1 °F 73% 30.10 in 10.0 mi South 3.5 mph - N/A   Clear
8:53 PM 64.0 °F - 60.1 °F 87% 30.10 in 10.0 mi Calm Calm - N/A   Clear
9:53 PM 69.1 °F - 60.1 °F 73% 30.12 in 10.0 mi NW 6.9 mph - N/A   Mostly Cloudy
10:53 PM 71.1 °F - 60.1 °F 68% 30.14 in 10.0 mi NNW 6.9 mph 19.6 mph 0.00 in Rain Light Rain
11:33 PM 64.4 °F - 60.8 °F 88% 30.18 in 6.0 mi NNE 8.1 mph 16.1 mph 0.01 in Rain Light Rain
11:53 PM 63.0 °F - 59.0 °F 87% 30.19 in 9.0 mi North 6.9 mph - 0.02 in Rain Light Rain